Dayton, OH

4:46 AM EDT on March 24, 2017 (GMT -0400)
Cox-Dayton International

Weather History for KDAY - June, 2012

Change the Weather History Date:

Friday, June 8, 2012

  Actual Average Record
Temperature  
Mean Temperature 71 °F 69 °F  
Max Temperature 85 °F 78 °F 96 °F (1933)
Min Temperature 56 °F 59 °F 41 °F (1901)
Degree Days  
Heating Degree Days 0 1  
Month to date heating degree days 21 14  
Since 1 June heating degree days 21 14  
Since 1 July heating degree days 4606 5634  
Cooling Degree Days 6 5  
Month to date cooling degree days 11 35  
Year to date cooling degree days 194 105  
Since 1 June cooling degree days 11 35  
Growing Degree Days 20 (Base 50)    
Moisture  
Dew Point 43 °F    
Average Humidity 45    
Maximum Humidity 72    
Minimum Humidity 18    
Precipitation  
Precipitation 0.00 in 0.14 in 1.70 in (1961)
Month to date precipitation 0.59 1.16  
Year to date precipitation 13.46 18.20  
Snow  
Snow 0.00 in 0.00 in 0.00 in ()
Month to date snowfall 0.0 0.0  
Since 1 June snowfall 0.0 0.0  
Since 1 July snowfall 9.2 23.3  
Snow Depth 0.00 in    
Sea Level Pressure  
Sea Level Pressure 30.05 in    
Wind  
Wind Speed 5 mph (WNW)    
Max Wind Speed 18 mph    
Max Gust Speed 28 mph    
Visibility 10 miles    
Events      
T = Trace of Precipitation, MM = Missing Value Source: NWS Daily Summary

Daily Weather History Graph

Daily Weather History Graph

Search for Another Location

Airport or City:

Trip Planner

Search our weather history database for the weather conditions in past years. The results will help you decide how hot, cold, wet, or windy it might be!

Date:

Astronomy

Jun. 08, 2012 Rise Set
Actual Time 6:08 AM EDT 9:04 PM EDT
Civil Twilight 5:35 AM EDT 9:36 PM EDT
Nautical Twilight 4:54 AM EDT 10:17 PM EDT
Astronomical Twilight 4:07 AM EDT 11:05 PM EDT
Moon No Moon Rise 10:46 AM EDT (6/8)
Length of Visible Light 16h 00m
Length of Day
14h 55m
Waning Gibbous, 77% of the Moon is Illuminated
Jun 8
Waning Gibbous
Jun 11
Last Quarter
Jun 19
New
Jun 26
First Quarter
Jul 3
Full

Hourly Weather History & Observations

Time (EDT) Temp. Dew Point Humidity Pressure Visibility Wind Dir Wind Speed Gust Speed Precip Events Conditions
12:56 AM 62.1 °F 46.9 °F 58% 30.06 in 10.0 mi Calm Calm - N/A   Clear
1:56 AM 62.1 °F 46.9 °F 58% 30.06 in 10.0 mi Calm Calm - N/A   Clear
2:56 AM 62.1 °F 46.9 °F 58% 30.06 in 10.0 mi Calm Calm - N/A   Clear
3:56 AM 61.0 °F 46.9 °F 60% 30.06 in 10.0 mi Calm Calm - N/A   Clear
4:56 AM 60.1 °F 46.9 °F 62% 30.06 in 10.0 mi Calm Calm - N/A   Clear
5:56 AM 57.0 °F 46.9 °F 69% 30.07 in 10.0 mi Calm Calm - N/A   Clear
6:56 AM 57.9 °F 48.0 °F 70% 30.09 in 10.0 mi NW 4.6 mph - N/A   Clear
7:56 AM 63.0 °F 48.9 °F 60% 30.10 in 10.0 mi NNW 3.5 mph - N/A   Clear
8:56 AM 70.0 °F 48.0 °F 46% 30.11 in 10.0 mi Calm Calm - N/A   Clear
9:56 AM 75.0 °F 46.0 °F 36% 30.10 in 10.0 mi Calm Calm - N/A   Clear
10:56 AM 80.1 °F 39.9 °F 24% 30.09 in 10.0 mi WNW 9.2 mph - N/A   Clear
11:56 AM 81.0 °F 39.9 °F 23% 30.08 in 10.0 mi NNW 9.2 mph 17.3 mph N/A   Partly Cloudy
12:56 PM 81.0 °F 39.0 °F 22% 30.08 in 10.0 mi WNW 5.8 mph - N/A   Scattered Clouds
1:56 PM 82.9 °F 37.9 °F 20% 30.06 in 10.0 mi NNW 12.7 mph 19.6 mph N/A   Scattered Clouds
2:56 PM 82.9 °F 37.0 °F 19% 30.04 in 10.0 mi NW 11.5 mph 16.1 mph N/A   Scattered Clouds
3:56 PM 82.9 °F 37.9 °F 20% 30.03 in 10.0 mi NNW 5.8 mph - N/A   Scattered Clouds
4:56 PM 82.9 °F 36.0 °F 19% 30.01 in 10.0 mi Calm Calm - N/A   Scattered Clouds
5:56 PM 84.0 °F 39.0 °F 20% 29.99 in 10.0 mi Variable 5.8 mph - N/A   Scattered Clouds
6:56 PM 82.9 °F 39.0 °F 21% 29.99 in 10.0 mi West 4.6 mph - N/A   Partly Cloudy
7:56 PM 81.0 °F 41.0 °F 24% 29.98 in 10.0 mi WNW 5.8 mph - N/A   Clear
8:56 PM 75.0 °F 44.1 °F 33% 29.98 in 10.0 mi West 4.6 mph - N/A   Clear
9:56 PM 72.0 °F 41.0 °F 33% 29.99 in 10.0 mi WSW 4.6 mph - N/A   Clear
10:56 PM 72.0 °F 43.0 °F 35% 30.00 in 10.0 mi SW 5.8 mph - N/A   Clear
11:56 PM 71.1 °F 44.1 °F 38% 30.01 in 10.0 mi SSW 8.1 mph - N/A   Clear